Location: Orange
(33.2833°S, 149.1000°E)
Time: 01:48:50
(UTC+11:00)

Tiangong - Visible Passes

Search period start: 05 December 2021 00:00
Search period end: 15 December 2021 00:00
Orbit: 380 x 384 km, 41.5° (Epoch: 04 December)

Date Brightness Start Highest point End Pass type
(mag) Time Alt. Az. Time Alt. Az. Time Alt. Az.
11 Dec 3.3 04:43:10 11° N 04:45:09 17° NE 04:47:21 10° E visible
13 Dec 2.1 04:19:47 29° N 04:20:32 33° NE 04:23:27 10° E visible
14 Dec 4.0 03:21:53 11° ENE 03:21:53 11° ENE 03:22:12 10° E visible
14 Dec 1.4 04:54:01 15° WNW 04:56:34 62° SSW 04:59:45 10° ESE visible
